PARS 1

Last updated on Mon Sep 07 2026 00:02:46 GMT+0000 (Coordinated Universal Time)

1 59065U 24039Q 26249.64683090 .00007313 00000+0 14523-3 0 9993 2 59065 97.4906 233.2673 0009430 165.4791 194.6732 15.47261499141238
UTC large
Height (km)
Speed (km/s)
/
Latitude / Longitude
Inclination (degrees)
Orbital Period (minutes)
Azimuth
Elevation
Range (km)
Doppler Factor

Next 0 passes for location: London (51.5072 / 0.1276)

No passes found over London.
PARS 1